| time (UTC) | temp F | wind direction | speed knots | gust knots | rain 1hr in | rain 24hr in | rain mn in | humidity % | barometer mb |
| 20260507095927 | 83 | 45 | 0.0 | 1.7 | 0.00 | 0.00 | 0.00 | 40 | 944.0 |
| 20260507095447 | 83 | 45 | 0.0 | 1.7 | 0.00 | 0.00 | 0.00 | 41 | 944.0 |
| 20260507094928 | 82 | 22 | 0.0 | 1.7 | 0.00 | 0.00 | 0.00 | 40 | 944.0 |
| 20260507093927 | 82 | 68 | 1.7 | 1.7 | 0.00 | 0.00 | 0.00 | 40 | 944.0 |
| 20260507092428 | 81 | 68 | 1.7 | 1.7 | 0.00 | 0.00 | 0.00 | 41 | 944.0 |
| 20260507090940 | 82 | 315 | 0.0 | 0.0 | 0.00 | 0.00 | 0.00 | 41 | 944.0 |
| 20260507090426 | 82 | 315 | 0.0 | 0.9 | 0.00 | 0.00 | 0.00 | 41 | 944.0 |
| 20260507085928 | 82 | 22 | 0.0 | 0.9 | 0.00 | 0.00 | 0.00 | 42 | 944.0 |
| 20260507084944 | 81 | 0 | 0.0 | 1.7 | 0.00 | 0.00 | 0.00 | 42 | 944.0 |
| 20260507083927 | 81 | 0 | 0.0 | 0.0 | 0.00 | 0.00 | 0.00 | 42 | 944.0 |
| 20260507082426 | 80 | 0 | 1.7 | 1.7 | 0.00 | 0.00 | 0.00 | 43 | 944.0 |
| 20260507081433 | 80 | 0 | 0.0 | 0.0 | 0.00 | 0.00 | 0.00 | 43 | 944.0 |
| 20260507080939 | 80 | 0 | 0.0 | 0.0 | 0.00 | 0.00 | 0.00 | 43 | 944.0 |
| 20260507080432 | 80 | 338 | 0.0 | 0.0 | 0.00 | 0.00 | 0.00 | 43 | 944.0 |
| 20260507075928 | 79 | 315 | 0.0 | 0.0 | 0.00 | 0.00 | 0.00 | 43 | 944.0 |
| 20260507075427 | 79 | 315 | 0.0 | 1.7 | 0.00 | 0.00 | 0.00 | 44 | 944.0 |
| 20260507074939 | 79 | 315 | 0.0 | 1.7 | 0.00 | 0.00 | 0.00 | 44 | 944.0 |
| 20260507073931 | 78 | 338 | 0.0 | 1.7 | 0.00 | 0.00 | 0.00 | 45 | 944.0 |
| 20260507073427 | 78 | 338 | 0.0 | 0.0 | 0.00 | 0.00 | 0.00 | 46 | 944.0 |
| 20260507072948 | 78 | 338 | 0.0 | 0.0 | 0.00 | 0.00 | 0.00 | 47 | 944.0 |
| 20260507072427 | 77 | 315 | 0.0 | 0.0 | 0.00 | 0.00 | 0.00 | 47 | 944.0 |
| 20260507071427 | 75 | 315 | 0.0 | 0.0 | 0.00 | 0.00 | 0.00 | 48 | 944.0 |
| 20260507070929 | 75 | 270 | 0.0 | 0.0 | 0.00 | 0.00 | 0.00 | 49 | 944.0 |
| 20260507065957 | 74 | 270 | 0.0 | 3.5 | 0.00 | 0.00 | 0.00 | 51 | 944.0 |
| 20260507065427 | 73 | 248 | 3.5 | 3.5 | 0.00 | 0.00 | 0.00 | 51 | 944.0 |
| 20260507064928 | 72 | 248 | 2.6 | 2.6 | 0.00 | 0.00 | 0.00 | 52 | 944.0 |
| 20260507063928 | 71 | 248 | 0.0 | 1.7 | 0.00 | 0.00 | 0.00 | 53 | 944.0 |
| 20260507062443 | 70 | 248 | 0.0 | 0.9 | 0.00 | 0.00 | 0.00 | 56 | 944.0 |
| 20260507061931 | 69 | 248 | 0.0 | 0.0 | 0.00 | 0.00 | 0.00 | 56 | 944.0 |
| 20260507061448 | 68 | 248 | 0.0 | 1.7 | 0.00 | 0.00 | 0.00 | 57 | 944.0 |
| 20260507060927 | 67 | 248 | 0.0 | 1.7 | 0.00 | 0.00 | 0.00 | 57 | 944.0 |
| 20260507060427 | 67 | 248 | 0.0 | 1.7 | 0.00 | 0.00 | 0.00 | 58 | 944.0 |
| 20260507055428 | 65 | 248 | 0.0 | 1.7 | 0.00 | 0.00 | 0.00 | 59 | 944.0 |
| 20260507054928 | 64 | 248 | 0.0 | 1.7 | 0.00 | 0.00 | 0.00 | 60 | 944.0 |
| 20260507054427 | 64 | 248 | 0.0 | 1.7 | 0.00 | 0.00 | 0.00 | 61 | 944.0 |
| 20260507053934 | 63 | 248 | 0.0 | 1.7 | 0.00 | 0.00 | 0.00 | 61 | 944.0 |
| 20260507052936 | 62 | 248 | 1.7 | 2.6 | 0.00 | 0.00 | 0.00 | 62 | 945.0 |
| 20260507051427 | 61 | 248 | 0.0 | 0.0 | 0.00 | 0.00 | 0.00 | 64 | 945.0 |
| 20260507050431 | 59 | 225 | 0.0 | 1.7 | 0.00 | 0.00 | 0.00 | 65 | 944.0 |
| 20260507045426 | 59 | 225 | 0.0 | 0.9 | 0.00 | 0.00 | 0.00 | 66 | 945.0 |
| 20260507044927 | 58 | 225 | 0.0 | 0.9 | 0.00 | 0.00 | 0.00 | 67 | 944.0 |
| 20260507044427 | 58 | 225 | 0.0 | 0.0 | 0.00 | 0.00 | 0.00 | 67 | 945.0 |
| 20260507043429 | 57 | 225 | 0.0 | 1.7 | 0.00 | 0.00 | 0.00 | 67 | 944.0 |
| 20260507042927 | 57 | 225 | 0.0 | 1.7 | 0.00 | 0.00 | 0.00 | 68 | 944.0 |
| 20260507042427 | 56 | 225 | 0.0 | 0.0 | 0.00 | 0.00 | 0.00 | 68 | 944.0 |
| 20260507041931 | 56 | 225 | 0.0 | 0.0 | 0.00 | 0.00 | 0.00 | 69 | 944.0 |
| 20260507041435 | 56 | 225 | 0.0 | 0.0 | 0.00 | 0.00 | 0.00 | 69 | 944.0 |
| 20260507040926 | 55 | 225 | 0.0 | 0.0 | 0.00 | 0.00 | 0.00 | 69 | 944.0 |
| 20260507040429 | 54 | 225 | 0.0 | 0.0 | 0.00 | 0.00 | 0.00 | 69 | 944.0 |
| 20260507035943 | 54 | 225 | 0.0 | 0.0 | 0.00 | 0.00 | 0.00 | 69 | 944.0 |
| 20260507034927 | 53 | 225 | 0.0 | 0.0 | 0.00 | 0.00 | 0.00 | 70 | 944.0 |
| 20260507033928 | 53 | 225 | 0.0 | 0.0 | 0.00 | 0.00 | 0.00 | 70 | 944.0 |
| 20260507033428 | 52 | 225 | 0.0 | 0.0 | 0.00 | 0.00 | 0.00 | 70 | 944.0 |
| 20260507032928 | 52 | 225 | 0.0 | 0.0 | 0.00 | 0.00 | 0.00 | 70 | 944.0 |
| 20260507032428 | 52 | 225 | 0.0 | 0.9 | 0.00 | 0.00 | 0.00 | 70 | 944.0 |
| 20260507025932 | 51 | 225 | 0.0 | 0.9 | 0.00 | 0.00 | 0.00 | 70 | 944.0 |
| 20260507024429 | 51 | 225 | 0.0 | 0.0 | 0.00 | 0.00 | 0.00 | 69 | 944.0 |
| 20260507023926 | 51 | 225 | 0.0 | 0.0 | 0.00 | 0.00 | 0.00 | 69 | 944.0 |
| 20260507022432 | 52 | 225 | 0.0 | 0.0 | 0.00 | 0.00 | 0.00 | 69 | 944.0 |
| 20260507021928 | 52 | 225 | 0.0 | 0.0 | 0.00 | 0.00 | 0.00 | 68 | 944.0 |
| 20260507020930 | 52 | 225 | 0.0 | 0.0 | 0.00 | 0.00 | 0.00 | 68 | 944.0 |
| 20260507020429 | 52 | 225 | 0.0 | 0.9 | 0.00 | 0.00 | 0.00 | 67 | 944.0 |
| 20260507014939 | 53 | 225 | 0.0 | 2.6 | 0.00 | 0.00 | 0.00 | 67 | 944.0 |
| 20260507014431 | 53 | 225 | 0.0 | 2.6 | 0.00 | 0.00 | 0.00 | 67 | 944.0 |
| 20260507013927 | 53 | 225 | 0.9 | 2.6 | 0.00 | 0.00 | 0.00 | 67 | 944.0 |
| 20260507013427 | 53 | 225 | 1.7 | 2.6 | 0.00 | 0.00 | 0.00 | 66 | 944.0 |
| 20260507012945 | 53 | 225 | 0.9 | 2.6 | 0.00 | 0.00 | 0.00 | 66 | 944.0 |
| 20260507012427 | 53 | 225 | 2.6 | 3.5 | 0.00 | 0.00 | 0.00 | 66 | 943.0 |
| 20260507011927 | 54 | 225 | 1.7 | 4.3 | 0.00 | 0.00 | 0.00 | 66 | 944.0 |
| 20260507011427 | 54 | 225 | 2.6 | 4.3 | 0.00 | 0.00 | 0.00 | 65 | 943.0 |
| 20260507005927 | 54 | 202 | 3.5 | 5.2 | 0.00 | 0.00 | 0.00 | 65 | 943.0 |
| 20260507005428 | 54 | 248 | 3.5 | 5.2 | 0.00 | 0.00 | 0.00 | 64 | 943.0 |
| 20260507004434 | 54 | 248 | 3.5 | 3.5 | 0.00 | 0.00 | 0.00 | 65 | 943.0 |
| 20260507002926 | 54 | 248 | 1.7 | 1.7 | 0.00 | 0.00 | 0.00 | 64 | 943.0 |
| 20260507002445 | 54 | 248 | 0.0 | 0.9 | 0.00 | 0.00 | 0.00 | 63 | 943.0 |
| 20260507001927 | 55 | 248 | 0.0 | 0.0 | 0.00 | 0.00 | 0.00 | 63 | 943.0 |
| 20260507000927 | 55 | 248 | 0.0 | 0.0 | 0.00 | 0.00 | 0.00 | 62 | 944.0 |
| 20260507000427 | 55 | 248 | 0.0 | 0.0 | 0.00 | 0.00 | 0.00 | 62 | 943.0 |
| 20260506235430 | 55 | 248 | 0.0 | 1.7 | 0.00 | 0.00 | 0.00 | 62 | 943.0 |
| 20260506234927 | 55 | 248 | 0.0 | 1.7 | 0.00 | 0.00 | 0.00 | 61 | 943.0 |
| 20260506234428 | 56 | 248 | 1.7 | 1.7 | 0.00 | 0.00 | 0.00 | 61 | 943.0 |
| 20260506231942 | 56 | 248 | 1.7 | 1.7 | 0.00 | 0.00 | 0.00 | 60 | 943.0 |
| 20260506225943 | 57 | 248 | 0.0 | 0.0 | 0.00 | 0.00 | 0.00 | 59 | 943.0 |
| 20260506225427 | 57 | 248 | 0.0 | 1.7 | 0.00 | 0.00 | 0.00 | 59 | 943.0 |
| 20260506224426 | 57 | 248 | 0.0 | 0.0 | 0.00 | 0.00 | 0.00 | 58 | 943.0 |
| 20260506223426 | 57 | 248 | 0.0 | 0.0 | 0.00 | 0.00 | 0.00 | 58 | 943.0 |
| 20260506222926 | 57 | 248 | 0.0 | 1.7 | 0.00 | 0.00 | 0.00 | 57 | 943.0 |
| 20260506222430 | 57 | 248 | 0.0 | 1.7 | 0.00 | 0.00 | 0.00 | 57 | 943.0 |
| 20260506221927 | 58 | 248 | 0.0 | 0.0 | 0.00 | 0.00 | 0.00 | 56 | 943.0 |
| 20260506220930 | 58 | 248 | 0.0 | 0.0 | 0.00 | 0.00 | 0.00 | 56 | 943.0 |
| 20260506215936 | 58 | 248 | 0.0 | 1.7 | 0.00 | 0.00 | 0.00 | 56 | 943.0 |
| 20260506214925 | 59 | 248 | 1.7 | 1.7 | 0.00 | 0.00 | 0.00 | 55 | 943.0 |
| 20260506214427 | 59 | 248 | 0.0 | 0.0 | 0.00 | 0.00 | 0.00 | 54 | 943.0 |
| 20260506212931 | 60 | 248 | 0.0 | 1.7 | 0.00 | 0.00 | 0.00 | 54 | 943.0 |
| 20260506211926 | 60 | 248 | 0.9 | 1.7 | 0.00 | 0.00 | 0.00 | 53 | 942.0 |
| 20260506211431 | 60 | 248 | 1.7 | 1.7 | 0.00 | 0.00 | 0.00 | 53 | 942.0 |
| 20260506210928 | 60 | 248 | 0.0 | 0.0 | 0.00 | 0.00 | 0.00 | 52 | 942.0 |
| 20260506210426 | 60 | 248 | 0.0 | 0.0 | 0.00 | 0.00 | 0.00 | 52 | 942.0 |
| 20260506205433 | 61 | 248 | 0.0 | 0.0 | 0.00 | 0.00 | 0.00 | 52 | 942.0 |
| 20260506203438 | 61 | 248 | 0.0 | 0.9 | 0.00 | 0.00 | 0.00 | 50 | 942.0 |
| 20260506202927 | 61 | 248 | 0.0 | 0.9 | 0.00 | 0.00 | 0.00 | 49 | 942.0 |
| 20260506202427 | 62 | 248 | 0.9 | 0.9 | 0.00 | 0.00 | 0.00 | 49 | 942.0 |
| 20260506200926 | 62 | 248 | 0.0 | 1.7 | 0.00 | 0.00 | 0.00 | 48 | 942.0 |
| 20260506200446 | 63 | 248 | 0.0 | 0.9 | 0.00 | 0.00 | 0.00 | 48 | 942.0 |
| 20260506194929 | 63 | 248 | 3.5 | 3.5 | 0.00 | 0.00 | 0.00 | 47 | 942.0 |
| 20260506194427 | 64 | 248 | 0.0 | 1.7 | 0.00 | 0.00 | 0.00 | 47 | 942.0 |
| 20260506193446 | 64 | 248 | 0.9 | 0.9 | 0.00 | 0.00 | 0.00 | 46 | 942.0 |
| 20260506191426 | 64 | 248 | 1.7 | 2.6 | 0.00 | 0.00 | 0.00 | 44 | 942.0 |
| 20260506190929 | 65 | 248 | 1.7 | 1.7 | 0.00 | 0.00 | 0.00 | 44 | 942.0 |
| 20260506190425 | 65 | 248 | 1.7 | 2.6 | 0.00 | 0.00 | 0.00 | 44 | 942.0 |
| 20260506185926 | 65 | 248 | 0.0 | 2.6 | 0.00 | 0.00 | 0.00 | 43 | 942.0 |
| 20260506184937 | 66 | 248 | 0.0 | 1.7 | 0.00 | 0.00 | 0.00 | 42 | 942.0 |
| 20260506184427 | 66 | 248 | 0.9 | 2.6 | 0.00 | 0.00 | 0.00 | 42 | 942.0 |
| 20260506181927 | 67 | 225 | 1.7 | 3.5 | 0.00 | 0.00 | 0.00 | 39 | 941.0 |
| 20260506181425 | 68 | 225 | 0.9 | 3.5 | 0.00 | 0.00 | 0.00 | 39 | 942.0 |
| 20260506180926 | 68 | 225 | 3.5 | 3.5 | 0.00 | 0.00 | 0.00 | 38 | 941.0 |
| 20260506180427 | 68 | 202 | 0.9 | 3.5 | 0.00 | 0.00 | 0.00 | 38 | 941.0 |
| 20260506175926 | 68 | 248 | 2.6 | 3.5 | 0.00 | 0.00 | 0.00 | 38 | 941.0 |
| 20260506175426 | 68 | 248 | 1.7 | 3.5 | 0.00 | 0.00 | 0.00 | 37 | 941.0 |
| 20260506173926 | 69 | 248 | 3.5 | 3.5 | 0.00 | 0.00 | 0.00 | 36 | 941.0 |
| 20260506173426 | 70 | 0 | 0.0 | 2.6 | 0.00 | 0.00 | 0.00 | 36 | 941.0 |
| 20260506172943 | 70 | 248 | 0.0 | 2.6 | 0.00 | 0.00 | 0.00 | 35 | 941.0 |
| 20260506172439 | 70 | 135 | 2.6 | 3.5 | 0.00 | 0.00 | 0.00 | 35 | 941.0 |
| 20260506170426 | 72 | 68 | 0.0 | 4.3 | 0.00 | 0.00 | 0.00 | 34 | 941.0 |
| 20260506165426 | 72 | 202 | 0.0 | 1.7 | 0.00 | 0.00 | 0.00 | 33 | 941.0 |
| 20260506164926 | 73 | 0 | 0.0 | 1.7 | 0.00 | 0.00 | 0.00 | 32 | 941.0 |
| 20260506163930 | 74 | 22 | 0.0 | 1.7 | 0.00 | 0.00 | 0.00 | 31 | 941.0 |
| 20260506163428 | 74 | 135 | 1.7 | 1.7 | 0.00 | 0.00 | 0.00 | 31 | 941.0 |
| 20260506161926 | 75 | 90 | 0.0 | 3.5 | 0.00 | 0.00 | 0.00 | 29 | 941.0 |
| 20260506161425 | 75 | 90 | 1.7 | 1.7 | 0.00 | 0.00 | 0.00 | 29 | 941.0 |
| 20260506160927 | 76 | 248 | 1.7 | 2.6 | 0.00 | 0.00 | 0.00 | 29 | 941.0 |
| 20260506155427 | 76 | 90 | 1.7 | 3.5 | 0.00 | 0.00 | 0.00 | 28 | 941.0 |
| 20260506153426 | 78 | 270 | 1.7 | 1.7 | 0.00 | 0.00 | 0.00 | 28 | 941.0 |
| 20260506152926 | 78 | 315 | 0.9 | 3.5 | 0.00 | 0.00 | 0.00 | 28 | 941.0 |
| 20260506152427 | 78 | 292 | 0.0 | 4.3 | 0.00 | 0.00 | 0.00 | 27 | 941.0 |
| 20260506150927 | 80 | 292 | 1.7 | 4.3 | 0.00 | 0.00 | 0.00 | 26 | 941.0 |
| 20260506150425 | 80 | 315 | 0.0 | 2.6 | 0.00 | 0.00 | 0.00 | 26 | 941.0 |
| 20260506144429 | 81 | 90 | 0.0 | 1.7 | 0.00 | 0.00 | 0.00 | 26 | 941.0 |
| 20260506142926 | 82 | 270 | 0.0 | 4.3 | 0.00 | 0.00 | 0.00 | 25 | 941.0 |
| 20260506142426 | 82 | 248 | 0.9 | 4.3 | 0.00 | 0.00 | 0.00 | 25 | 941.0 |
| 20260506141928 | 83 | 225 | 2.6 | 4.3 | 0.00 | 0.00 | 0.00 | 25 | 941.0 |
| 20260506141435 | 83 | 112 | 3.5 | 3.5 | 0.00 | 0.00 | 0.00 | 25 | 941.0 |
| 20260506140926 | 84 | 68 | 1.7 | 3.5 | 0.00 | 0.00 | 0.00 | 25 | 941.0 |
| 20260506135925 | 85 | 0 | 0.0 | 3.5 | 0.00 | 0.00 | 0.00 | 23 | 941.0 |
| 20260506135445 | 85 | 135 | 0.0 | 2.6 | 0.00 | 0.00 | 0.00 | 23 | 941.0 |
| 20260506134926 | 85 | 0 | 0.9 | 2.6 | 0.00 | 0.00 | 0.00 | 23 | 941.0 |
| 20260506134426 | 86 | 338 | 0.0 | 3.5 | 0.00 | 0.00 | 0.00 | 23 | 941.0 |
| 20260506131431 | 88 | 22 | 0.0 | 4.3 | 0.00 | 0.00 | 0.00 | 22 | 941.0 |
| 20260506130936 | 88 | 248 | 1.7 | 4.3 | 0.00 | 0.00 | 0.00 | 22 | 941.0 |
| 20260506130427 | 88 | 0 | 0.0 | 2.6 | 0.00 | 0.00 | 0.00 | 22 | 941.0 |
| 20260506124428 | 89 | 248 | 1.7 | 2.6 | 0.00 | 0.00 | 0.00 | 21 | 941.0 |
| 20260506123927 | 90 | 0 | 2.6 | 6.1 | 0.00 | 0.00 | 0.00 | 21 | 941.0 |
| 20260506123427 | 90 | 248 | 1.7 | 6.1 | 0.00 | 0.00 | 0.00 | 21 | 941.0 |
| 20260506122425 | 90 | 270 | 0.0 | 4.3 | 0.00 | 0.00 | 0.00 | 21 | 941.0 |
| 20260506121425 | 90 | 90 | 1.7 | 2.6 | 0.00 | 0.00 | 0.00 | 21 | 941.0 |
| 20260506120926 | 91 | 90 | 2.6 | 2.6 | 0.00 | 0.00 | 0.00 | 21 | 942.0 |
| 20260506120433 | 91 | 270 | 0.0 | 2.6 | 0.00 | 0.00 | 0.00 | 21 | 941.0 |
| 20260506115926 | 91 | 270 | 0.0 | 8.7 | 0.00 | 0.00 | 0.00 | 21 | 942.0 |
| 20260506114943 | 91 | 292 | 0.9 | 8.7 | 0.00 | 0.00 | 0.00 | 21 | 942.0 |
| 20260506114439 | 91 | 270 | 0.9 | 5.2 | 0.00 | 0.00 | 0.00 | 21 | 942.0 |
| 20260506113925 | 91 | 90 | 2.6 | 5.2 | 0.00 | 0.00 | 0.00 | 21 | 942.0 |
| 20260506113426 | 91 | 68 | 1.7 | 3.5 | 0.00 | 0.00 | 0.00 | 22 | 942.0 |
| 20260506112425 | 92 | 90 | 0.9 | 1.7 | 0.00 | 0.00 | 0.00 | 22 | 942.0 |
| 20260506111425 | 92 | 0 | 0.0 | 1.7 | 0.00 | 0.00 | 0.00 | 22 | 942.0 |
| 20260506110925 | 92 | 338 | 0.0 | 1.7 | 0.00 | 0.00 | 0.00 | 22 | 942.0 |
| 20260506110432 | 92 | 338 | 0.0 | 1.7 | 0.00 | 0.00 | 0.00 | 22 | 942.0 |
| 20260506105933 | 92 | 22 | 1.7 | 1.7 | 0.00 | 0.00 | 0.00 | 23 | 942.0 |
| 20260506104010 | 92 | 45 | 2.6 | 3.5 | 0.00 | 0.00 | 0.00 | 24 | 942.0 |
| 20260506103430 | 92 | 270 | 2.6 | 3.5 | 0.00 | 0.00 | 0.00 | 24 | 942.0 |
| 20260506100924 | 90 | 90 | 0.0 | 2.6 | 0.00 | 0.00 | 0.00 | 25 | 943.0 |